• In Deutschland
  • Länderverzeichnis
  • Für 7 Tage
  • Wassertemperatur
  • Satellitenkarten
  • Wetterkarte
  • Widgets
  • user-avatar
    Anmelden

    Stündliche Wetter Melbourne

    Heute, 23 April, Sonntag

    Zeit Temperatur Niederschläge Wind Luftdruck Luftfeuchtigkeit
    00:00 +15°C° 0 mm 1 m/S 766 mmHg 98%
    01:00 +15°C° 0 mm 1 m/S 766 mmHg 98%
    02:00 +15°C° 0 mm 1 m/S 766 mmHg 98%
    03:00 +14°C° 0 mm 1 m/S 766 mmHg 98%
    04:00 +14°C° 0 mm 2 m/S 765 mmHg 98%
    05:00 +14°C° 0 mm 1 m/S 766 mmHg 98%
    06:00 +14°C° 0 mm 1 m/S 766 mmHg 98%
    07:00 +13°C° 0 mm 1 m/S 766 mmHg 98%
    08:00 +15°C° 0 mm 1 m/S 766 mmHg 93%
    09:00 +18°C° 0 mm 1 m/S 766 mmHg 89%
    10:00 +21°C° 0 mm 1 m/S 766 mmHg 82%
    11:00 +22°C° 0,1 mm 1 m/S 766 mmHg 77%
    12:00 +23°C° 0,1 mm 1 m/S 765 mmHg 72%
    13:00 +23°C° 0,1 mm 1 m/S 765 mmHg 67%
    14:00 +23°C° 0,1 mm 1 m/S 765 mmHg 71%
    15:00 +22°C° 0,1 mm 1 m/S 765 mmHg 74%
    16:00 +21°C° 0 mm 2 m/S 765 mmHg 74%
    17:00 +19°C° 0 mm 2 m/S 765 mmHg 81%
    18:00 +19°C° 0 mm 1 m/S 765 mmHg 89%
    19:00 +16°C° 0 mm 1 m/S 765 mmHg 97%
    20:00 +16°C° 0 mm 1 m/S 765 mmHg 97%
    21:00 +15°C° 0 mm 1 m/S 765 mmHg 98%
    22:00 +14°C° 0 mm 1 m/S 765 mmHg 98%
    23:00 +13°C° 0 mm 0 m/S 765 mmHg 98%

    Morgen, 24 April, Montag

    Zeit Temperatur Niederschläge Wind Luftdruck Luftfeuchtigkeit
    00:00 +13°C° 0 mm 0 m/S 765 mmHg 98%
    01:00 +13°C° 0 mm 0 m/S 765 mmHg 97%
    02:00 +13°C° 0 mm 0 m/S 765 mmHg 97%
    03:00 +13°C° 0 mm 0 m/S 764 mmHg 97%
    04:00 +12°C° 0 mm 0 m/S 764 mmHg 97%
    05:00 +13°C° 0 mm 0 m/S 764 mmHg 97%
    06:00 +14°C° 0 mm 1 m/S 764 mmHg 97%
    07:00 +14°C° 0 mm 1 m/S 764 mmHg 97%
    08:00 +16°C° 0,1 mm 1 m/S 764 mmHg 92%
    09:00 +18°C° 0,1 mm 1 m/S 763 mmHg 87%
    10:00 +20°C° 0,1 mm 1 m/S 763 mmHg 81%
    11:00 +21°C° 0,3 mm 1 m/S 762 mmHg 76%
    12:00 +22°C° 0,3 mm 1 m/S 762 mmHg 70%
    13:00 +24°C° 0,3 mm 1 m/S 761 mmHg 64%
    14:00 +23°C° 0,3 mm 1 m/S 760 mmHg 67%
    15:00 +23°C° 0,3 mm 1 m/S 760 mmHg 70%
    16:00 +23°C° 0,3 mm 1 m/S 759 mmHg 73%
    17:00 +21°C° 0,6 mm 1 m/S 759 mmHg 79%
    18:00 +20°C° 0,6 mm 1 m/S 759 mmHg 85%
    19:00 +18°C° 0,6 mm 1 m/S 759 mmHg 91%
    20:00 +18°C° 0,6 mm 1 m/S 759 mmHg 91%
    21:00 +18°C° 0,6 mm 1 m/S 759 mmHg 92%
    22:00 +18°C° 0,6 mm 1 m/S 758 mmHg 92%
    23:00 +16°C° 0,9 mm 1 m/S 758 mmHg 93%

    übermorgen, 25 April, Dienstag

    Zeit Temperatur Niederschläge Wind Luftdruck Luftfeuchtigkeit
    00:00 +16°C° 0,9 mm 1 m/S 757 mmHg 94%
    01:00 +16°C° 0,9 mm 1 m/S 757 mmHg 96%
    02:00 +16°C° 1,6 mm 2 m/S 756 mmHg 96%
    03:00 +16°C° 1,6 mm 3 m/S 755 mmHg 96%
    04:00 +17°C° 1,6 mm 3 m/S 755 mmHg 96%
    05:00 +17°C° 0,9 mm 3 m/S 755 mmHg 96%
    06:00 +17°C° 0,9 mm 2 m/S 755 mmHg 97%
    07:00 +17°C° 0,9 mm 2 m/S 755 mmHg 97%
    08:00 +17°C° 0,5 mm 2 m/S 755 mmHg 95%
    09:00 +18°C° 0,5 mm 2 m/S 755 mmHg 93%
    10:00 +19°C° 0,5 mm 1 m/S 755 mmHg 91%
    11:00 +18°C° 0,3 mm 2 m/S 755 mmHg 89%
    12:00 +19°C° 0,3 mm 2 m/S 755 mmHg 86%
    13:00 +19°C° 0,3 mm 2 m/S 754 mmHg 83%
    14:00 +19°C° 0,5 mm 2 m/S 754 mmHg 84%
    15:00 +18°C° 0,5 mm 2 m/S 754 mmHg 86%
    16:00 +18°C° 0,5 mm 2 m/S 754 mmHg 87%
    17:00 +16°C° 0,1 mm 2 m/S 754 mmHg 89%
    18:00 +15°C° 0,1 mm 2 m/S 754 mmHg 91%
    19:00 +13°C° 0,1 mm 2 m/S 754 mmHg 94%
    20:00 +14°C° 0,3 mm 2 m/S 754 mmHg 94%
    21:00 +14°C° 0,3 mm 2 m/S 754 mmHg 94%
    22:00 +13°C° 0,3 mm 3 m/S 754 mmHg 93%
    23:00 +13°C° 0 mm 3 m/S 753 mmHg 93%

    26 April, Mittwoch

    Zeit Temperatur Niederschläge Wind Luftdruck Luftfeuchtigkeit
    00:00 +12°C° 0 mm 3 m/S 753 mmHg 92%
    01:00 +12°C° 0 mm 3 m/S 752 mmHg 92%
    02:00 +12°C° 1,4 mm 4 m/S 752 mmHg 93%
    03:00 +12°C° 1,4 mm 4 m/S 752 mmHg 93%
    04:00 +10°C° 1,4 mm 5 m/S 752 mmHg 94%
    05:00 +10°C° 0,9 mm 5 m/S 753 mmHg 93%
    06:00 +9°C° 0,9 mm 5 m/S 754 mmHg 93%
    07:00 +8°C° 0,9 mm 5 m/S 755 mmHg 92%
    08:00 +8°C° 0,6 mm 5 m/S 756 mmHg 90%
    09:00 +9°C° 0,6 mm 6 m/S 757 mmHg 88%
    10:00 +9°C° 0,6 mm 6 m/S 758 mmHg 86%
    11:00 +9°C° 0,3 mm 6 m/S 758 mmHg 82%
    12:00 +9°C° 0,3 mm 6 m/S 759 mmHg 78%
    13:00 +10°C° 0,3 mm 6 m/S 759 mmHg 74%
    14:00 +9°C° 0,2 mm 6 m/S 760 mmHg 73%
    15:00 +9°C° 0,2 mm 6 m/S 760 mmHg 72%
    16:00 +9°C° 0,2 mm 5 m/S 760 mmHg 71%
    17:00 +8°C° 0,1 mm 5 m/S 761 mmHg 74%
    18:00 +8°C° 0,1 mm 4 m/S 762 mmHg 76%
    19:00 +7°C° 0,1 mm 4 m/S 762 mmHg 78%
    20:00 +7°C° 0,3 mm 4 m/S 762 mmHg 80%
    21:00 +7°C° 0,3 mm 4 m/S 763 mmHg 83%
    22:00 +8°C° 0,3 mm 4 m/S 763 mmHg 85%
    23:00 +8°C° 0,2 mm 4 m/S 763 mmHg 84%

    27 April, Donnerstag

    Zeit Temperatur Niederschläge Wind Luftdruck Luftfeuchtigkeit
    00:00 +8°C° 0,2 mm 4 m/S 763 mmHg 84%
    01:00 +8°C° 0,2 mm 4 m/S 763 mmHg 84%
    02:00 +8°C° 0,1 mm 4 m/S 763 mmHg 84%
    03:00 +8°C° 0,1 mm 4 m/S 763 mmHg 84%
    04:00 +8°C° 0,1 mm 4 m/S 763 mmHg 84%
    05:00 +8°C° 0,1 mm 4 m/S 764 mmHg 84%
    06:00 +8°C° 0,1 mm 4 m/S 764 mmHg 84%
    07:00 +8°C° 0,1 mm 4 m/S 765 mmHg 85%
    08:00 +8°C° 0,1 mm 4 m/S 765 mmHg 84%
    09:00 +10°C° 0,1 mm 4 m/S 766 mmHg 83%
    10:00 +10°C° 0,1 mm 3 m/S 766 mmHg 83%
    11:00 +11°C° 0,1 mm 3 m/S 766 mmHg 80%
    12:00 +11°C° 0,1 mm 4 m/S 766 mmHg 78%
    13:00 +11°C° 0,1 mm 4 m/S 766 mmHg 76%
    14:00 +11°C° 0,1 mm 3 m/S 766 mmHg 75%
    15:00 +12°C° 0,1 mm 3 m/S 766 mmHg 74%
    16:00 +12°C° 0,1 mm 3 m/S 765 mmHg 73%
    17:00 +11°C° 0 mm 3 m/S 766 mmHg 77%
    18:00 +10°C° 0 mm 3 m/S 766 mmHg 81%
    19:00 +9°C° 0 mm 2 m/S 766 mmHg 86%
    20:00 +9°C° 0 mm 2 m/S 766 mmHg 88%
    21:00 +9°C° 0 mm 2 m/S 767 mmHg 90%
    22:00 +9°C° 0 mm 2 m/S 767 mmHg 91%
    23:00 +9°C° 0 mm 2 m/S 766 mmHg 92%

    28 April, Freitag

    Zeit Temperatur Niederschläge Wind Luftdruck Luftfeuchtigkeit
    00:00 +9°C° 0 mm 2 m/S 766 mmHg 93%
    01:00 +9°C° 0 mm 2 m/S 766 mmHg 94%
    02:00 +9°C° 0 mm 2 m/S 766 mmHg 94%
    03:00 +9°C° 0 mm 2 m/S 765 mmHg 95%
    04:00 +9°C° 0 mm 2 m/S 765 mmHg 95%
    05:00 +9°C° 0 mm 2 m/S 765 mmHg 95%
    06:00 +9°C° 0 mm 2 m/S 765 mmHg 95%
    07:00 +10°C° 0 mm 2 m/S 765 mmHg 94%
    08:00 +11°C° 0 mm 3 m/S 765 mmHg 90%
    09:00 +12°C° 0 mm 3 m/S 765 mmHg 85%
    10:00 +14°C° 0 mm 3 m/S 765 mmHg 81%
    11:00 +14°C° 0 mm 3 m/S 765 mmHg 81%
    12:00 +16°C° 0 mm 3 m/S 764 mmHg 80%
    13:00 +16°C° 0 mm 3 m/S 764 mmHg 80%
    14:00 +16°C° 0,1 mm 3 m/S 763 mmHg 81%
    15:00 +16°C° 0,1 mm 3 m/S 763 mmHg 82%
    16:00 +16°C° 0,1 mm 3 m/S 763 mmHg 83%
    17:00 +14°C° 0,1 mm 3 m/S 763 mmHg 85%
    18:00 +14°C° 0,1 mm 4 m/S 762 mmHg 87%
    19:00 +13°C° 0,1 mm 4 m/S 762 mmHg 89%
    20:00 +13°C° 0,1 mm 4 m/S 762 mmHg 90%
    21:00 +13°C° 0,1 mm 4 m/S 762 mmHg 90%
    22:00 +13°C° 0,1 mm 4 m/S 762 mmHg 91%
    23:00 +13°C° 0,1 mm 4 m/S 761 mmHg 91%
    Mehr zeigen